Weather History for Sevilla, Spain

Change the Weather History Date:

Saturday, September 21, 2013

  Actual Average Record
Temperature  
Mean Temperature 80 °F -  
Max Temperature 96 °F 79 °F 96 °F (2013)
Min Temperature 64 °F 58 °F 53 °F (2000)
Cooling Degree Days 15    
Growing Degree Days 30 (Base 50)    
Moisture  
Dew Point 57 °F    
Average Humidity 49    
Maximum Humidity 88    
Minimum Humidity 20    
Precipitation  
Precipitation 0.00 in - - ()
Sea Level Pressure  
Sea Level Pressure 30.06 in    
Wind  
Wind Speed 4 mph ()    
Max Wind Speed 8 mph    
Max Gust Speed -    
Visibility 6.2 miles    
Events      
Averages and records for this station are not official NWS values.
T = Trace of Precipitation, MM = Missing Value Source: Averaged Metar Reports

Daily Weather History Graph

Daily Weather History Graph

Search for Another Location

Airport:

Trip Planner

Search our weather history database for the weather conditions in past years. The results will help you decide how hot, cold, wet, or windy it might be!

Date:

Astronomy

Sep. 21, 2013 Rise Set
Actual Time 8:10 AM CEST 8:22 PM CEST
Civil Twilight 7:44 AM CEST 8:48 PM CEST
Nautical Twilight 7:13 AM CEST 9:18 PM CEST
Astronomical Twilight 6:42 AM CEST 9:49 PM CEST
Moon 9:27 PM CEST (9/21) 10:10 AM CEST (9/21)
Length of Visible Light 13h 03m
Length of Day
12h 11m
Waning Gibbous, 95% of the Moon is Illuminated
Sep 21
Waning Gibbous
Sep 27
Last Quarter
Oct 5
New
Oct 12
First Quarter
Oct 19
Full

Hourly Weather History & Observations

Time (CEST) Temp. Heat Index Dew Point Humidity Pressure Visibility Wind Dir Wind Speed Gust Speed Precip Events Conditions
12:00 AM 77.0 °F - 62.6 °F 61% 30.04 in - SSW 6.9 mph - N/A   Clear
12:30 AM 75.2 °F - 62.6 °F 65% 30.04 in - SSW 6.9 mph - N/A   Clear
1:00 AM 75.2 °F - 62.6 °F 65% 30.04 in - SW 3.5 mph - N/A   Clear
4:30 AM 68.0 °F - 62.6 °F 83% 30.04 in - Calm Calm - N/A   Clear
5:00 AM 69.8 °F - 62.6 °F 78% 30.04 in - Calm Calm - N/A   Clear
5:30 AM 66.2 °F - 60.8 °F 83% 30.06 in - NE 4.6 mph - N/A   Clear
6:00 AM 66.2 °F - 60.8 °F 83% 30.06 in - Calm Calm - N/A   Clear
6:30 AM 66.2 °F - 60.8 °F 83% 30.06 in - NE 1.2 mph - N/A   Clear
7:00 AM 66.2 °F - 60.8 °F 83% 30.06 in - Calm Calm - N/A   Clear
7:30 AM 64.4 °F - 60.8 °F 88% 30.06 in - Calm Calm - N/A   Clear
8:00 AM 66.2 °F - 60.8 °F 83% 30.06 in - NNE 1.2 mph - N/A   Clear
8:30 AM 66.2 °F - 60.8 °F 83% 30.06 in - NE 3.5 mph - N/A   Clear
9:00 AM 68.0 °F - 60.8 °F 78% 30.06 in - NE 6.9 mph - N/A   Clear
9:30 AM 71.6 °F - 60.8 °F 69% 30.09 in - NE 5.8 mph - N/A   Clear
10:00 AM 73.4 °F - 60.8 °F 65% 30.09 in - NE 4.6 mph - N/A   Clear
10:30 AM 75.2 °F - 60.8 °F 61% 30.09 in - NE 5.8 mph - N/A   Clear
11:00 AM 78.8 °F - 62.6 °F 57% 30.09 in - NE 8.1 mph - N/A   Clear
11:30 AM 80.6 °F 81.1 °F 59.0 °F 48% 30.09 in - East 5.8 mph - N/A   Clear
12:00 PM 82.4 °F 82.5 °F 59.0 °F 45% 30.09 in - East 6.9 mph - N/A   Clear
12:30 PM 84.2 °F 83.8 °F 59.0 °F 42% 30.09 in - ENE 5.8 mph - N/A   Clear
1:00 PM 86.0 °F 85.4 °F 59.0 °F 40% 30.09 in - ENE 6.9 mph - N/A   Clear
1:30 PM 87.8 °F 86.5 °F 57.2 °F 35% 30.09 in - ENE 6.9 mph - N/A   Clear
2:00 PM 89.6 °F 88.1 °F 57.2 °F 33% 30.06 in - East 5.8 mph - N/A   Clear
2:30 PM 91.4 °F 89.4 °F 55.4 °F 29% 30.06 in - ENE 6.9 mph - N/A   Clear
3:00 PM 91.4 °F 89.1 °F 53.6 °F 28% 30.06 in - East 4.6 mph - N/A   Clear
3:30 PM 93.2 °F 90.8 °F 53.6 °F 26% 30.06 in - ENE 6.9 mph - N/A   Clear
4:00 PM 95.0 °F - 51.8 °F 23% 30.04 in 6.2 mi Variable 3.5 mph - N/A   Partly Cloudy
4:30 PM 95.0 °F - 50.0 °F 22% 30.04 in 6.2 mi SSE 4.6 mph - N/A   Partly Cloudy
5:00 PM 96.8 °F - 51.8 °F 22% 30.04 in 6.2 mi SSE 3.5 mph - N/A   Partly Cloudy
5:30 PM 95.0 °F - 48.2 °F 20% 30.01 in 6.2 mi SSE 3.5 mph - N/A   Partly Cloudy
6:00 PM 93.2 °F - 48.2 °F 21% 30.01 in 6.2 mi East 3.5 mph - N/A   Partly Cloudy
6:30 PM 93.2 °F - 48.2 °F 21% 30.01 in 6.2 mi Variable 1.2 mph - N/A   Partly Cloudy
7:00 PM 91.4 °F - 50.0 °F 24% 30.01 in 6.2 mi Variable 2.3 mph - N/A   Partly Cloudy
7:30 PM 91.4 °F 89.1 °F 53.6 °F 28% 30.04 in 6.2 mi NE 6.9 mph - N/A   Partly Cloudy
8:00 PM 89.6 °F 87.3 °F 53.6 °F 29% 30.04 in 6.2 mi NE 6.9 mph - N/A   Partly Cloudy
8:30 PM 87.8 °F 85.7 °F 53.6 °F 31% 30.04 in 6.2 mi ENE 4.6 mph - N/A   Partly Cloudy
9:00 PM 86.0 °F 84.2 °F 53.6 °F 33% 30.04 in 6.2 mi NE 3.5 mph - N/A   Partly Cloudy
9:30 PM 86.0 °F - 51.8 °F 31% 30.04 in 6.2 mi East 4.6 mph - N/A   Partly Cloudy
10:00 PM 84.2 °F 82.8 °F 53.6 °F 35% 30.06 in - SSW 5.8 mph - N/A   Clear
10:30 PM 82.4 °F 82.0 °F 57.2 °F 42% 30.06 in - SSW 5.8 mph - N/A   Clear
11:00 PM 80.6 °F 81.1 °F 59.0 °F 48% 30.06 in - South 6.9 mph - N/A   Clear
11:30 PM 80.6 °F 81.1 °F 59.0 °F 48% 30.09 in - SW 4.6 mph - N/A   Clear